QPF
0.02 0.03 0.03 0.01 0.02 0.04 0.05 0.04 0.03 0.05 0.05 0.05 0.05 0.06 0.06 0.06 0.06 0.07 0.07 0.07 0.09 0.10 0.09 0.07 0.05 0.04 0.03 0.03 0.03 0.02 0.01 0.01 0.01 0.01 0.00 0.01 0.01 0.00 0.00 0.00 0.00 0.00 0.00
0.02 0.02 0.03 0.03 0.02 0.04 0.06 0.10 0.09 0.07 0.06 0.06 0.06 0.06 0.07 0.08 0.08 0.08 0.06 0.05 0.06 0.08 0.09 0.09 0.07 0.06 0.05 0.04 0.04 0.03 0.03 0.02 0.02 0.01 0.01 0.01 0.01 0.01 0.01 0.01 0.01 0.01 0.01
0.05 0.03 0.03 0.04 0.03 0.03 0.03 0.05 0.06 0.06 0.06 0.06 0.07 0.06 0.06 0.08 0.09 0.10 0.13 0.09 0.08 0.08 0.09 0.10 0.10 0.08 0.07 0.07 0.06 0.06 0.06 0.05 0.04 0.03 0.03 0.02 0.02 0.02 0.02 0.01 0.01 0.01 0.01
0.07 0.06 0.05 0.04 0.03 0.03 0.04 0.05 0.05 0.05 0.06 0.08 0.10 0.11 0.11 0.12 0.12 0.12 0.13 0.14 0.13 0.09 0.08 0.10 0.11 0.10 0.09 0.08 0.08 0.08 0.08 0.07 0.06 0.05 0.04 0.04 0.03 0.02 0.02 0.02 0.02 0.02 0.02
0.09 0.08 0.07 0.06 0.06 0.07 0.08 0.07 0.07 0.07 0.10 0.12 0.11 0.13 0.15 0.16 0.16 0.16 0.16 0.16 0.16 0.12 0.11 0.11 0.12 0.11 0.11 0.12 0.13 0.12 0.10 0.08 0.06 0.05 0.05 0.04 0.04 0.03 0.03 0.03 0.03 0.03 0.03
0.14 0.12 0.10 0.09 0.09 0.11 0.11 0.10 0.11 0.11 0.10 0.11 0.11 0.11 0.11 0.11 0.13 0.15 0.16 0.16 0.15 0.15 0.15 0.14 0.12 0.11 0.11 0.12 0.12 0.13 0.12 0.09 0.07 0.06 0.05 0.05 0.05 0.04 0.03 0.03 0.03 0.04 0.04
0.16 0.14 0.13 0.13 0.12 0.12 0.12 0.13 0.13 0.12 0.11 0.10 0.10 0.09 0.08 0.08 0.09 0.10 0.11 0.12 0.14 0.16 0.19 0.19 0.15 0.13 0.10 0.10 0.10 0.11 0.10 0.09 0.08 0.08 0.07 0.07 0.06 0.05 0.05 0.05 0.05 0.05 0.06
0.16 0.14 0.14 0.14 0.13 0.12 0.12 0.11 0.11 0.12 0.12 0.10 0.10 0.09 0.08 0.07 0.07 0.08 0.08 0.08 0.08 0.08 0.10 0.10 0.09 0.10 0.10 0.10 0.10 0.10 0.08 0.08 0.09 0.10 0.10 0.09 0.08 0.06 0.05 0.05 0.06 0.06 0.06
0.17 0.18 0.18 0.17 0.14 0.12 0.11 0.10 0.10 0.10 0.09 0.09 0.10 0.10 0.09 0.07 0.07 0.07 0.07 0.06 0.05 0.05 0.05 0.05 0.06 0.06 0.07 0.07 0.08 0.08 0.09 0.09 0.09 0.10 0.10 0.09 0.07 0.05 0.05 0.05 0.05 0.06 0.07
0.25 0.21 0.19 0.18 0.14 0.12 0.13 0.14 0.13 0.11 0.10 0.09 0.09 0.10 0.10 0.08 0.07 0.06 0.05 0.05 0.04 0.04 0.04 0.04 0.04 0.04 0.05 0.06 0.07 0.07 0.07 0.07 0.06 0.06 0.05 0.05 0.04 0.04 0.03 0.03 0.04 0.04 0.05
0.23 0.18 0.16 0.15 0.14 0.13 0.12 0.11 0.10 0.08 0.07 0.07 0.08 0.08 0.08 0.07 0.06 0.06 0.05 0.04 0.05 0.04 0.04 0.05 0.05 0.05 0.06 0.07 0.07 0.09 0.09 0.07 0.06 0.06 0.05 0.05 0.04 0.04 0.03 0.03 0.03 0.03 0.04
0.16 0.14 0.14 0.13 0.11 0.08 0.07 0.06 0.05 0.04 0.04 0.04 0.05 0.05 0.04 0.04 0.04 0.04 0.04 0.04 0.03 0.04 0.04 0.05 0.05 0.06 0.06 0.06 0.06 0.09 0.07 0.06 0.05 0.04 0.04 0.04 0.04 0.03 0.03 0.03 0.03 0.03 0.03
0.13 0.12 0.12 0.11 0.08 0.06 0.05 0.05 0.04 0.04 0.04 0.04 0.05 0.04 0.03 0.03 0.03 0.03 0.04 0.04 0.04 0.03 0.03 0.03 0.03 0.04 0.04 0.04 0.05 0.07 0.05 0.04 0.03 0.03 0.02 0.02 0.02 0.02 0.02 0.02 0.02 0.02 0.02
0.10 0.08 0.06 0.05 0.04 0.03 0.03 0.03 0.03 0.04 0.04 0.04 0.04 0.04 0.03 0.03 0.03 0.03 0.03 0.04 0.04 0.03 0.03 0.03 0.03 0.03 0.03 0.03 0.04 0.05 0.03 0.03 0.03 0.02 0.02 0.02 0.02 0.02 0.01 0.01 0.01 0.01 0.01
0.07 0.05 0.04 0.03 0.03 0.02 0.02 0.01 0.02 0.02 0.03 0.04 0.04 0.03 0.02 0.02 0.02 0.02 0.02 0.03 0.04 0.04 0.04 0.04 0.04 0.03 0.03 0.03 0.04 0.03 0.03 0.02 0.02 0.01 0.01 0.01 0.01 0.01 0.01 0.01 0.01 0.01 0.01
0.06 0.05 0.04 0.03 0.02 0.02 0.02 0.02 0.02 0.02 0.02 0.02 0.02 0.02 0.02 0.02 0.02 0.02 0.02 0.03 0.03 0.04 0.05 0.04 0.04 0.03 0.03 0.02 0.02 0.02 0.02 0.01 0.01 0.01 0.00 0.00 0.00 0.00 0.00 0.01 0.01 0.01 0.01
0.05 0.04 0.04 0.03 0.03 0.02 0.02 0.02 0.02 0.02 0.03 0.03 0.03 0.02 0.02 0.02 0.01 0.01 0.01 0.01 0.02 0.02 0.02 0.02 0.01 0.01 0.01 0.01 0.01 0.00 0.00 0.00 0.00 0.00 0.00 0.00 0.00 0.00 0.01 0.01 0.01 0.01 0.01
0.03 0.03 0.02 0.01 0.01 0.01 0.01 0.01 0.01 0.02 0.02 0.01 0.01 0.01 0.01 0.01 0.00 0.00 0.01 0.01 0.01 0.01 0.01 0.01 0.01 0.00 0.00 0.00 0.00 0.00 0.00 0.00 0.00 0.00 0.00 0.00 0.00 0.01 0.00 0.00 0.01 0.00 0.00
0.02 0.01 0.01 0.01 0.00 0.00 0.00 0.00 0.00 0.00 0.00 0.00 0.00 0.00 0.00 0.00 0.01 0.01 0.01 0.01 0.01 0.00 0.00 0.00 0.00 0.00 0.00 0.00 0.00 0.00 0.00 0.00 0.00 0.00 0.00 0.00 0.00 0.00 0.00 0.00 0.00 0.00 0.00
0.01 0.01 0.00 0.00 0.00 0.00 0.00 0.00 0.00 0.00 0.00 0.00 0.00 0.00 0.00 0.00 0.00 0.00 0.00 0.00 0.00 0.00 0.00 0.00 0.00 0.00 0.00 0.00 0.00 0.00 0.00 0.00 0.00 0.00 0.00 0.00 0.00 0.00 0.00 0.00 0.00 0.00 0.00
0.00 0.00 0.00 0.00 0.00 0.00 0.00 0.00 0.00 0.00 0.00 0.00 0.00 0.00 0.00 0.00 0.00 0.00 0.00 0.00 0.00 0.00 0.00 0.00 0.00 0.00 0.00 0.00 0.00 0.00 0.00 0.00 0.00 0.00 0.00 0.00 0.00 0.00 0.00 0.00 0.00 0.00 0.00
0.00 0.00 0.00 0.00 0.00 0.00 0.00 0.00 0.00 0.00 0.00 0.00 0.00 0.00 0.00 0.00 0.00 0.00 0.00 0.00 0.00 0.00 0.00 0.00 0.00 0.00 0.00 0.00 0.00 0.00 0.00 0.00 0.00 0.00 0.00 0.00 0.00 0.00 0.00 0.00 0.00 0.00 0.00
0.00 0.00 0.00 0.00 0.00 0.00 0.00 0.00 0.00 0.00 0.00 0.00 0.00 0.00 0.00 0.00 0.00 0.00 0.00 0.00 0.00 0.00 0.00 0.00 0.00 0.00 0.00 0.00 0.00 0.00 0.00 0.00 0.00 0.00 0.00 0.00 0.00 0.00 0.00 0.00 0.00 0.00 0.00
0.00 0.00 0.00 0.00 0.00 0.00 0.00 0.00 0.00 0.00 0.00 0.00 0.00 0.00 0.00 0.00 0.00 0.00 0.00 0.00 0.00 0.00 0.00 0.01 0.00 0.00 0.00 0.00 0.00 0.00 0.00 0.00 0.00 0.01 0.01 0.00 0.00 0.00 0.00 0.00 0.00 0.00 0.00
0.00 0.00 0.00 0.00 0.00 0.00 0.00 0.00 0.00 0.00 0.00 0.00 0.00 0.00 0.00 0.00 0.00 0.00 0.00 0.00 0.00 0.00 0.00 0.00 0.00 0.00 0.00 0.00 0.00 0.00 0.00 0.00 0.00 0.00 0.01 0.00 0.00 0.00 0.00 0.00 0.00 0.00 0.00
0.00 0.00 0.00 0.00 0.00 0.00 0.00 0.00 0.00 0.00 0.00 0.00 0.00 0.00 0.00 0.00 0.00 0.00 0.00 0.00 0.00 0.00 0.00 0.00 0.00 0.00 0.01 0.01 0.01 0.01 0.01 0.01 0.01 0.01 0.00 0.00 0.00 0.00 0.00 0.00 0.00 0.00 0.00
MSLP
1016.03 1016.20 1016.33 1016.45 1016.59 1016.77 1016.98 1017.21 1017.45 1017.67 1017.84 1017.95 1018.01 1018.02 1017.99 1017.94 1017.88 1017.83 1017.79 1017.78 1017.80 1017.85 1017.94 1018.08 1018.27 1018.51 1018.79 1019.08 1019.37 1019.64 1019.87 1020.06 1020.21 1020.33 1020.45 1020.58 1020.74 1020.91 1021.10 1021.28 1021.45 1021.60 1021.71
1015.95 1016.10 1016.24 1016.39 1016.58 1016.80 1017.05 1017.32 1017.59 1017.82 1018.00 1018.11 1018.14 1018.12 1018.05 1017.96 1017.86 1017.76 1017.67 1017.62 1017.59 1017.60 1017.65 1017.76 1017.91 1018.11 1018.35 1018.60 1018.86 1019.11 1019.33 1019.52 1019.70 1019.86 1020.03 1020.21 1020.41 1020.63 1020.86 1021.08 1021.29 1021.47 1021.62
1015.99 1016.14 1016.29 1016.47 1016.68 1016.95 1017.25 1017.55 1017.84 1018.09 1018.26 1018.35 1018.36 1018.30 1018.18 1018.03 1017.87 1017.72 1017.58 1017.46 1017.37 1017.32 1017.32 1017.37 1017.46 1017.60 1017.79 1017.99 1018.21 1018.43 1018.65 1018.86 1019.06 1019.26 1019.47 1019.71 1019.96 1020.22 1020.49 1020.75 1020.99 1021.21 1021.41
1016.19 1016.32 1016.47 1016.66 1016.91 1017.20 1017.53 1017.86 1018.16 1018.40 1018.56 1018.62 1018.59 1018.49 1018.33 1018.13 1017.91 1017.70 1017.50 1017.32 1017.17 1017.06 1016.99 1016.96 1016.99 1017.07 1017.19 1017.34 1017.52 1017.73 1017.94 1018.16 1018.40 1018.64 1018.90 1019.17 1019.45 1019.75 1020.04 1020.32 1020.59 1020.84 1021.07
1016.51 1016.63 1016.77 1016.96 1017.22 1017.52 1017.86 1018.19 1018.49 1018.71 1018.84 1018.87 1018.81 1018.66 1018.46 1018.22 1017.96 1017.71 1017.46 1017.23 1017.03 1016.86 1016.72 1016.63 1016.59 1016.60 1016.66 1016.77 1016.93 1017.12 1017.34 1017.59 1017.85 1018.13 1018.42 1018.71 1019.01 1019.31 1019.60 1019.88 1020.15 1020.41 1020.67
1016.92 1017.03 1017.16 1017.35 1017.60 1017.90 1018.22 1018.53 1018.80 1018.99 1019.09 1019.09 1018.99 1018.82 1018.59 1018.33 1018.06 1017.78 1017.51 1017.26 1017.02 1016.80 1016.61 1016.46 1016.36 1016.32 1016.34 1016.42 1016.56 1016.75 1016.99 1017.26 1017.55 1017.86 1018.16 1018.46 1018.75 1019.02 1019.28 1019.53 1019.76 1020.00 1020.25
1017.40 1017.51 1017.63 1017.81 1018.04 1018.31 1018.61 1018.88 1019.11 1019.26 1019.32 1019.29 1019.17 1018.99 1018.77 1018.52 1018.25 1017.99 1017.72 1017.46 1017.20 1016.96 1016.74 1016.55 1016.40 1016.32 1016.30 1016.36 1016.50 1016.70 1016.96 1017.26 1017.58 1017.90 1018.20 1018.49 1018.74 1018.97 1019.16 1019.34 1019.52 1019.70 1019.91
1017.93 1018.05 1018.17 1018.34 1018.55 1018.79 1019.05 1019.28 1019.46 1019.57 1019.59 1019.54 1019.42 1019.25 1019.05 1018.83 1018.61 1018.38 1018.14 1017.89 1017.64 1017.39 1017.15 1016.92 1016.75 1016.63 1016.60 1016.65 1016.78 1016.99 1017.27 1017.59 1017.92 1018.25 1018.54 1018.80 1019.00 1019.15 1019.27 1019.36 1019.45 1019.56 1019.69
1018.51 1018.64 1018.79 1018.96 1019.15 1019.37 1019.58 1019.76 1019.89 1019.96 1019.96 1019.90 1019.79 1019.66 1019.50 1019.34 1019.17 1018.99 1018.79 1018.58 1018.34 1018.09 1017.83 1017.59 1017.39 1017.25 1017.19 1017.23 1017.36 1017.57 1017.86 1018.18 1018.52 1018.83 1019.11 1019.32 1019.46 1019.54 1019.57 1019.56 1019.56 1019.57 1019.61
1019.13 1019.31 1019.49 1019.67 1019.86 1020.05 1020.23 1020.37 1020.46 1020.50 1020.48 1020.42 1020.33 1020.23 1020.13 1020.03 1019.92 1019.80 1019.65 1019.47 1019.26 1019.01 1018.75 1018.49 1018.26 1018.09 1018.00 1018.01 1018.12 1018.32 1018.59 1018.90 1019.22 1019.51 1019.75 1019.91 1019.99 1020.00 1019.95 1019.86 1019.76 1019.68 1019.64
1019.80 1020.04 1020.26 1020.47 1020.66 1020.84 1020.99 1021.09 1021.15 1021.16 1021.13 1021.08 1021.02 1020.96 1020.91 1020.87 1020.82 1020.75 1020.64 1020.50 1020.30 1020.05 1019.78 1019.50 1019.23 1019.03 1018.90 1018.86 1018.93 1019.08 1019.31 1019.58 1019.86 1020.11 1020.30 1020.41 1020.43 1020.38 1020.27 1020.11 1019.95 1019.80 1019.69
1020.53 1020.83 1021.09 1021.33 1021.54 1021.70 1021.83 1021.90 1021.93 1021.92 1021.88 1021.83 1021.79 1021.77 1021.76 1021.76 1021.75 1021.73 1021.66 1021.53 1021.34 1021.10 1020.81 1020.51 1020.21 1019.96 1019.77 1019.67 1019.67 1019.75 1019.90 1020.10 1020.31 1020.49 1020.62 1020.68 1020.66 1020.56 1020.41 1020.21 1020.01 1019.83 1019.67
1021.30 1021.65 1021.96 1022.22 1022.43 1022.59 1022.69 1022.73 1022.73 1022.69 1022.64 1022.59 1022.57 1022.56 1022.58 1022.61 1022.63 1022.63 1022.58 1022.47 1022.29 1022.05 1021.75 1021.43 1021.10 1020.80 1020.55 1020.37 1020.27 1020.25 1020.30 1020.39 1020.50 1020.60 1020.66 1020.66 1020.59 1020.46 1020.28 1020.08 1019.87 1019.67 1019.51
1022.11 1022.49 1022.82 1023.09 1023.30 1023.44 1023.50 1023.51 1023.47 1023.41 1023.34 1023.28 1023.25 1023.25 1023.27 1023.32 1023.36 1023.37 1023.33 1023.24 1023.07 1022.84 1022.54 1022.21 1021.85 1021.51 1021.19 1020.93 1020.72 1020.59 1020.51 1020.47 1020.45 1020.44 1020.41 1020.34 1020.22 1020.07 1019.88 1019.68 1019.48 1019.31 1019.16
1022.92 1023.32 1023.66 1023.92 1024.10 1024.21 1024.23 1024.19 1024.11 1024.01 1023.91 1023.83 1023.78 1023.77 1023.80 1023.84 1023.88 1023.90 1023.88 1023.80 1023.65 1023.43 1023.15 1022.83 1022.46 1022.08 1021.71 1021.36 1021.05 1020.79 1020.56 1020.38 1020.23 1020.09 1019.95 1019.80 1019.63 1019.45 1019.26 1019.07 1018.90 1018.75 1018.63
1023.72 1024.11 1024.43 1024.67 1024.81 1024.87 1024.84 1024.75 1024.62 1024.48 1024.34 1024.23 1024.16 1024.14 1024.15 1024.18 1024.22 1024.24 1024.23 1024.17 1024.04 1023.86 1023.61 1023.30 1022.94 1022.55 1022.14 1021.72 1021.31 1020.92 1020.56 1020.23 1019.93 1019.65 1019.40 1019.17 1018.94 1018.72 1018.52 1018.34 1018.18 1018.06 1017.98
1024.48 1024.85 1025.14 1025.33 1025.43 1025.43 1025.35 1025.20 1025.02 1024.83 1024.66 1024.52 1024.43 1024.38 1024.37 1024.39 1024.42 1024.43 1024.43 1024.39 1024.29 1024.14 1023.93 1023.65 1023.32 1022.93 1022.49 1022.02 1021.53 1021.04 1020.55 1020.09 1019.65 1019.25 1018.89 1018.56 1018.27 1018.02 1017.79 1017.61 1017.46 1017.36 1017.30
1025.18 1025.51 1025.76 1025.91 1025.96 1025.90 1025.77 1025.58 1025.35 1025.13 1024.93 1024.76 1024.65 1024.58 1024.55 1024.54 1024.55 1024.56 1024.56 1024.52 1024.45 1024.33 1024.15 1023.91 1023.60 1023.22 1022.78 1022.28 1021.74 1021.17 1020.59 1020.01 1019.46 1018.96 1018.50 1018.09 1017.74 1017.44 1017.19 1016.99 1016.84 1016.74 1016.68
1025.79 1026.09 1026.30 1026.41 1026.41 1026.31 1026.14 1025.91 1025.66 1025.41 1025.19 1025.01 1024.87 1024.78 1024.73 1024.70 1024.69 1024.68 1024.66 1024.61 1024.54 1024.43 1024.27 1024.06 1023.77 1023.41 1022.98 1022.47 1021.89 1021.28 1020.63 1019.99 1019.37 1018.79 1018.26 1017.80 1017.40 1017.06 1016.79 1016.56 1016.40 1016.28 1016.21
1026.29 1026.57 1026.75 1026.82 1026.79 1026.67 1026.47 1026.23 1025.97 1025.71 1025.48 1025.29 1025.15 1025.04 1024.96 1024.90 1024.85 1024.80 1024.74 1024.67 1024.58 1024.45 1024.29 1024.08 1023.80 1023.45 1023.03 1022.52 1021.95 1021.32 1020.66 1019.99 1019.34 1018.73 1018.17 1017.68 1017.25 1016.89 1016.59 1016.35 1016.16 1016.02 1015.91
1026.68 1026.93 1027.09 1027.15 1027.10 1026.97 1026.77 1026.53 1026.27 1026.03 1025.80 1025.61 1025.46 1025.33 1025.23 1025.13 1025.03 1024.93 1024.81 1024.68 1024.53 1024.37 1024.17 1023.94 1023.66 1023.31 1022.89 1022.41 1021.85 1021.25 1020.61 1019.96 1019.32 1018.72 1018.17 1017.69 1017.26 1016.90 1016.60 1016.34 1016.12 1015.94 1015.79
1026.94 1027.17 1027.32 1027.38 1027.34 1027.21 1027.03 1026.80 1026.56 1026.33 1026.12 1025.94 1025.77 1025.63 1025.49 1025.34 1025.18 1025.01 1024.82 1024.61 1024.39 1024.15 1023.90 1023.63 1023.32 1022.96 1022.56 1022.10 1021.58 1021.03 1020.44 1019.85 1019.27 1018.72 1018.22 1017.77 1017.38 1017.03 1016.73 1016.47 1016.23 1016.02 1015.83
1027.10 1027.32 1027.46 1027.52 1027.49 1027.39 1027.23 1027.03 1026.81 1026.59 1026.39 1026.21 1026.04 1025.87 1025.69 1025.49 1025.26 1025.01 1024.73 1024.43 1024.12 1023.81 1023.48 1023.15 1022.81 1022.45 1022.05 1021.62 1021.15 1020.66 1020.15 1019.65 1019.15 1018.69 1018.26 1017.87 1017.53 1017.23 1016.95 1016.69 1016.44 1016.20 1015.97
1027.17 1027.38 1027.53 1027.59 1027.59 1027.50 1027.37 1027.19 1026.99 1026.79 1026.59 1026.39 1026.20 1026.00 1025.77 1025.51 1025.22 1024.89 1024.53 1024.15 1023.75 1023.36 1022.96 1022.58 1022.20 1021.82 1021.43 1021.03 1020.62 1020.21 1019.79 1019.38 1018.98 1018.61 1018.28 1017.97 1017.69 1017.43 1017.18 1016.94 1016.68 1016.43 1016.16
1027.22 1027.42 1027.57 1027.65 1027.65 1027.59 1027.47 1027.30 1027.11 1026.91 1026.70 1026.48 1026.25 1026.01 1025.74 1025.43 1025.07 1024.67 1024.24 1023.79 1023.33 1022.87 1022.42 1021.99 1021.58 1021.18 1020.81 1020.44 1020.09 1019.74 1019.41 1019.09 1018.80 1018.53 1018.28 1018.05 1017.83 1017.62 1017.40 1017.17 1016.92 1016.65 1016.37
1027.29 1027.48 1027.63 1027.71 1027.73 1027.68 1027.56 1027.40 1027.20 1026.98 1026.74 1026.48 1026.22 1025.93 1025.61 1025.25 1024.85 1024.40 1023.93 1023.43 1022.92 1022.42 1021.93 1021.47 1021.04 1020.64 1020.28 1019.94 1019.63 1019.35 1019.09 1018.85 1018.64 1018.45 1018.28 1018.11 1017.95 1017.78 1017.59 1017.37 1017.13 1016.86 1016.57
Thickness
5743 5742 5741 5740 5739 5738 5737 5735 5734 5732 5730 5729 5729 5727 5726 5725 5724 5723 5722 5721 5718 5715 5711 5709 5706 5704 5702 5700 5697 5694 5692 5690 5687 5685 5683 5681 5679 5678 5676 5675 5673 5672 5670
5743 5742 5740 5739 5737 5736 5735 5734 5732 5730 5728 5727 5725 5724 5723 5722 5721 5719 5719 5717 5715 5711 5708 5706 5704 5702 5699 5697 5694 5692 5689 5687 5684 5682 5680 5678 5676 5673 5671 5670 5668 5666 5665
5742 5741 5738 5737 5736 5735 5733 5731 5729 5727 5724 5722 5720 5719 5718 5716 5715 5713 5712 5711 5709 5707 5704 5702 5700 5698 5696 5694 5691 5688 5685 5682 5680 5678 5675 5672 5670 5668 5666 5664 5662 5660 5658
5739 5738 5736 5735 5734 5732 5730 5727 5724 5721 5718 5716 5714 5713 5711 5710 5708 5707 5705 5703 5702 5701 5699 5697 5696 5694 5692 5689 5686 5683 5680 5677 5674 5672 5669 5666 5664 5661 5659 5657 5655 5653 5651
5735 5734 5732 5731 5729 5727 5725 5722 5718 5715 5711 5709 5707 5705 5704 5702 5701 5700 5698 5697 5695 5694 5693 5691 5689 5687 5685 5682 5680 5677 5674 5671 5668 5665 5662 5659 5656 5653 5650 5648 5646 5643 5642
5730 5728 5726 5725 5723 5721 5717 5714 5711 5709 5705 5703 5701 5698 5696 5695 5694 5693 5692 5690 5688 5687 5686 5684 5681 5680 5678 5675 5672 5670 5667 5664 5660 5657 5654 5650 5647 5644 5641 5638 5636 5633 5632
5723 5722 5719 5717 5716 5713 5710 5708 5705 5701 5697 5696 5692 5688 5687 5687 5685 5684 5684 5682 5681 5679 5678 5676 5674 5672 5669 5666 5664 5661 5658 5654 5650 5647 5643 5640 5636 5633 5629 5627 5624 5622 5620
5714 5713 5711 5709 5707 5705 5702 5700 5698 5694 5691 5689 5685 5680 5675 5675 5675 5674 5673 5672 5670 5669 5668 5666 5664 5662 5659 5657 5654 5651 5647 5643 5639 5635 5631 5627 5624 5620 5617 5615 5612 5610 5608
5703 5703 5701 5700 5698 5696 5693 5691 5689 5687 5682 5680 5679 5675 5669 5666 5665 5663 5662 5660 5658 5658 5656 5654 5653 5650 5648 5645 5642 5639 5635 5630 5626 5622 5618 5614 5610 5607 5604 5602 5599 5597 5595
5691 5691 5689 5688 5687 5686 5684 5682 5680 5678 5675 5671 5669 5667 5665 5662 5657 5654 5651 5649 5647 5645 5643 5642 5640 5637 5634 5631 5628 5625 5621 5616 5612 5608 5604 5599 5595 5592 5590 5587 5585 5583 5581
5679 5677 5676 5675 5674 5673 5671 5669 5667 5666 5664 5660 5657 5655 5654 5650 5648 5645 5640 5636 5634 5631 5629 5627 5625 5623 5620 5617 5613 5609 5605 5600 5596 5591 5587 5583 5580 5577 5574 5572 5570 5568 5566
5666 5665 5664 5663 5662 5660 5659 5657 5655 5653 5650 5647 5644 5641 5639 5635 5632 5630 5626 5622 5619 5617 5615 5612 5610 5607 5604 5600 5597 5593 5588 5583 5578 5574 5571 5568 5565 5562 5559 5556 5554 5552 5550
5653 5651 5651 5650 5649 5646 5645 5643 5641 5638 5635 5632 5629 5626 5623 5619 5617 5616 5612 5607 5604 5601 5599 5596 5593 5590 5587 5584 5580 5576 5571 5566 5562 5558 5555 5552 5550 5547 5543 5540 5538 5535 5533
5641 5639 5638 5637 5634 5632 5631 5629 5627 5624 5621 5618 5614 5611 5607 5604 5602 5600 5596 5592 5587 5583 5581 5578 5575 5573 5570 5567 5564 5560 5556 5552 5548 5545 5542 5538 5535 5532 5529 5526 5523 5520 5517
5629 5626 5624 5622 5619 5618 5616 5614 5611 5607 5605 5602 5598 5595 5592 5589 5587 5584 5581 5578 5572 5566 5561 5559 5558 5556 5553 5550 5547 5544 5540 5537 5534 5531 5527 5524 5521 5517 5515 5511 5508 5505 5503
5615 5612 5609 5607 5604 5603 5601 5598 5595 5592 5589 5586 5583 5580 5577 5573 5570 5567 5564 5560 5556 5550 5544 5541 5540 5539 5536 5534 5531 5528 5525 5522 5520 5517 5513 5510 5506 5503 5501 5498 5496 5492 5490
5601 5597 5594 5592 5590 5588 5585 5583 5580 5577 5574 5570 5567 5565 5561 5558 5554 5550 5547 5542 5537 5532 5526 5522 5522 5521 5518 5516 5514 5512 5509 5507 5505 5502 5499 5497 5494 5491 5489 5486 5484 5481 5478
5587 5583 5580 5578 5575 5573 5570 5567 5565 5562 5559 5555 5552 5549 5546 5542 5537 5533 5529 5524 5519 5515 5509 5504 5502 5501 5500 5499 5497 5495 5494 5492 5490 5489 5487 5485 5483 5481 5479 5477 5474 5471 5468
5573 5569 5566 5563 5561 5558 5556 5553 5551 5548 5544 5541 5538 5534 5530 5526 5521 5517 5512 5507 5502 5499 5493 5488 5484 5484 5484 5484 5483 5482 5481 5479 5478 5477 5476 5475 5473 5471 5470 5468 5466 5463 5460
5559 5555 5552 5550 5547 5544 5542 5539 5537 5533 5531 5528 5524 5521 5517 5512 5507 5503 5498 5493 5488 5483 5478 5474 5471 5470 5470 5471 5469 5467 5467 5468 5468 5469 5468 5466 5465 5464 5462 5461 5459 5456 5452
5546 5543 5540 5537 5535 5532 5529 5526 5524 5521 5517 5514 5511 5508 5504 5500 5495 5491 5487 5481 5477 5472 5468 5464 5462 5460 5459 5459 5458 5457 5456 5457 5459 5460 5458 5459 5458 5457 5456 5454 5452 5449 5445
5533 5531 5528 5525 5522 5519 5517 5515 5512 5508 5505 5502 5498 5495 5492 5488 5484 5480 5477 5474 5470 5466 5461 5458 5456 5454 5454 5454 5453 5452 5450 5448 5449 5454 5451 5452 5453 5451 5451 5449 5446 5443 5439
5521 5518 5515 5512 5509 5507 5506 5504 5501 5498 5494 5491 5488 5485 5482 5479 5475 5472 5469 5468 5466 5464 5462 5458 5455 5454 5454 5454 5451 5450 5449 5446 5445 5449 5447 5446 5448 5446 5447 5444 5441 5437 5433
5510 5507 5505 5502 5499 5497 5495 5493 5491 5488 5485 5483 5480 5477 5474 5472 5469 5466 5464 5463 5463 5463 5462 5460 5457 5457 5457 5456 5453 5450 5448 5446 5446 5447 5445 5441 5442 5441 5442 5440 5436 5432 5429
5501 5499 5496 5493 5491 5488 5487 5484 5482 5479 5476 5475 5473 5472 5470 5468 5466 5463 5461 5460 5460 5462 5463 5462 5461 5460 5460 5459 5456 5451 5448 5444 5443 5443 5443 5439 5438 5436 5436 5434 5432 5429 5426
5494 5492 5489 5486 5484 5481 5479 5476 5474 5471 5468 5467 5467 5467 5466 5465 5464 5462 5459 5457 5457 5459 5460 5461 5462 5462 5461 5460 5458 5454 5450 5444 5441 5439 5441 5437 5434 5431 5430 5430 5429 5427 5424